SCX8502 PHKO-KLAX

Flight info

Callsign SCX8502
Flight time 4h 44m
Altitude 33000
Route KOA V5 MYNAH V11 UPP FITES R578 FIZEL/N0465F350 R578 FICKY GOATZ2
Aircraft B738/M-VGDW/C

Departure

Time 2026-04-25 05:17
Airport Ellison Onizuka Kona International Airport at Keāhole (PHKO)

Arrival

Time 2026-04-25 10:02
Airport Los Angeles International Airport (KLAX)
Time Latitude Longitude Altitude Speed Heading
2026-04-25 03:42 19.72766 -156.04304 51 ft 0 kts 182°
2026-04-25 05:07 19.72764 -156.04304 50 ft 1 kts 181°
2026-04-25 05:07 19.72753 -156.04307 49 ft 3 kts 198°
2026-04-25 05:07 19.72737 -156.04313 49 ft 3 kts 202°
2026-04-25 05:07 19.72711 -156.04325 49 ft 6 kts 205°
2026-04-25 05:08 19.72668 -156.04350 47 ft 9 kts 219°
2026-04-25 05:08 19.72646 -156.04401 46 ft 6 kts 273°
2026-04-25 05:08 19.72680 -156.04418 47 ft 6 kts
2026-04-25 05:08 19.72722 -156.04413 49 ft 6 kts
2026-04-25 05:09 19.72763 -156.04409 50 ft 6 kts
2026-04-25 05:09 19.72805 -156.04406 50 ft 7 kts
2026-04-25 05:09 19.72857 -156.04401 50 ft 8 kts
2026-04-25 05:09 19.72923 -156.04395 50 ft 11 kts
2026-04-25 05:10 19.73003 -156.04388 50 ft 12 kts
2026-04-25 05:10 19.73092 -156.04380 51 ft 13 kts
2026-04-25 05:10 19.73179 -156.04372 52 ft 13 kts
2026-04-25 05:10 19.73271 -156.04364 49 ft 14 kts
2026-04-25 05:11 19.73377 -156.04354 50 ft 17 kts
2026-04-25 05:11 19.73503 -156.04343 48 ft 19 kts
2026-04-25 05:11 19.73637 -156.04331 48 ft 19 kts
2026-04-25 05:12 19.73895 -156.04307 46 ft 18 kts
2026-04-25 05:12 19.74017 -156.04297 47 ft 17 kts
2026-04-25 05:12 19.74135 -156.04287 48 ft 17 kts
2026-04-25 05:12 19.74248 -156.04277 50 ft 16 kts
2026-04-25 05:13 19.74357 -156.04267 53 ft 15 kts
2026-04-25 05:13 19.74462 -156.04258 50 ft 15 kts
2026-04-25 05:13 19.74568 -156.04248 56 ft 16 kts
2026-04-25 05:13 19.74682 -156.04239 54 ft 17 kts
2026-04-25 05:14 19.74794 -156.04228 54 ft 16 kts
2026-04-25 05:14 19.74902 -156.04219 56 ft 15 kts
2026-04-25 05:14 19.75013 -156.04208 54 ft 17 kts
2026-04-25 05:15 19.75259 -156.04187 51 ft 17 kts
2026-04-25 05:15 19.75334 -156.04187 52 ft 10 kts 341°
2026-04-25 05:15 19.75360 -156.04250 53 ft 10 kts 275°
2026-04-25 05:15 19.75365 -156.04320 52 ft 9 kts 275°
2026-04-25 05:16 19.75370 -156.04389 48 ft 9 kts 275°
2026-04-25 05:16 19.75339 -156.04436 50 ft 9 kts 189°
2026-04-25 05:16 19.75230 -156.04447 50 ft 35 kts 185°
2026-04-25 05:16 19.74754 -156.04489 52 ft 100 kts 185°
2026-04-25 05:17 19.73866 -156.04566 50 ft 154 kts 184°
2026-04-25 05:17 19.72693 -156.04649 307 ft 179 kts 183°
2026-04-25 05:17 19.71444 -156.04801 1020 ft 185 kts 198°
2026-04-25 05:17 19.70318 -156.05643 1154 ft 219 kts 236°
2026-04-25 05:18 19.69966 -156.07259 1379 ft 233 kts 283°
2026-04-25 05:18 19.70608 -156.08763 2183 ft 224 kts 301°
2026-04-25 05:18 19.71417 -156.10283 2380 ft 250 kts 300°
2026-04-25 05:18 19.72275 -156.11954 2841 ft 263 kts 299°
2026-04-25 05:19 19.73130 -156.13688 3539 ft 266 kts 298°
2026-04-25 05:19 19.73967 -156.15449 4269 ft 269 kts 297°
2026-04-25 05:19 19.74800 -156.17242 4956 ft 273 kts 297°
2026-04-25 05:19 19.75631 -156.19064 5634 ft 276 kts 297°
2026-04-25 05:20 19.76466 -156.20911 6340 ft 278 kts 296°
2026-04-25 05:20 19.77300 -156.22772 6977 ft 281 kts 296°
2026-04-25 05:20 19.78141 -156.24653 7649 ft 282 kts 296°
2026-04-25 05:20 19.78982 -156.26540 8330 ft 283 kts 297°
2026-04-25 05:21 19.79829 -156.28440 8948 ft 286 kts 297°
2026-04-25 05:21 19.80681 -156.30353 9635 ft 287 kts 297°
2026-04-25 05:21 19.81780 -156.32109 10220 ft 288 kts 319°
2026-04-25 05:21 19.83511 -156.33249 10430 ft 303 kts 342°
2026-04-25 05:22 19.85631 -156.33706 10607 ft 320 kts 352°
2026-04-25 05:22 19.87905 -156.34019 10765 ft 338 kts 353°
2026-04-25 05:22 19.90301 -156.34333 10868 ft 355 kts 353°
2026-04-25 05:22 19.92808 -156.34684 10981 ft 371 kts 352°
2026-04-25 05:23 19.95396 -156.35063 11278 ft 379 kts 353°
2026-04-25 05:23 19.98023 -156.35029 11765 ft 381 kts 11°
2026-04-25 05:23 20.00489 -156.34023 12362 ft 381 kts 29°
2026-04-25 05:23 20.02576 -156.32264 12834 ft 387 kts 45°
2026-04-25 05:24 20.04140 -156.29910 13260 ft 396 kts 62°
2026-04-25 05:24 20.05183 -156.27166 13565 ft 404 kts 66°
2026-04-25 05:24 20.06143 -156.24378 13886 ft 409 kts 67°
2026-04-25 05:24 20.07110 -156.21513 14221 ft 413 kts 68°
2026-04-25 05:25 20.08084 -156.18643 14623 ft 414 kts 68°
2026-04-25 05:25 20.09074 -156.15757 14953 ft 417 kts 67°
2026-04-25 05:25 20.10082 -156.12851 15335 ft 419 kts 67°
2026-04-25 05:25 20.11097 -156.09941 15691 ft 422 kts 67°
2026-04-25 05:26 20.12126 -156.07003 16005 ft 425 kts 67°
2026-04-25 05:26 20.13162 -156.04047 16353 ft 427 kts 67°
2026-04-25 05:26 20.14202 -156.01078 16715 ft 429 kts 67°
2026-04-25 05:26 20.15249 -155.98088 17054 ft 432 kts 68°
2026-04-25 05:27 20.16299 -155.95085 17397 ft 434 kts 67°
2026-04-25 05:27 20.17365 -155.92036 17725 ft 437 kts 68°
2026-04-25 05:27 20.18413 -155.89032 18054 ft 439 kts 68°
2026-04-25 05:27 20.19482 -155.85972 18364 ft 441 kts 68°
2026-04-25 05:28 20.20494 -155.82879 18641 ft 444 kts 71°
2026-04-25 05:28 20.21295 -155.79692 18930 ft 447 kts 75°
2026-04-25 05:28 20.21981 -155.76457 19220 ft 449 kts 76°
2026-04-25 05:28 20.22631 -155.73195 19493 ft 452 kts 77°
2026-04-25 05:29 20.23282 -155.69915 19758 ft 453 kts 76°
2026-04-25 05:29 20.23722 -155.67739 19934 ft 455 kts 76°
2026-04-25 05:29 20.24401 -155.64446 20212 ft 456 kts 76°
2026-04-25 05:29 20.25097 -155.61142 20464 ft 458 kts 76°
2026-04-25 05:30 20.25804 -155.57830 20705 ft 460 kts 76°
2026-04-25 05:30 20.26522 -155.54498 20951 ft 462 kts 76°
2026-04-25 05:30 20.27245 -155.51156 21208 ft 464 kts 76°
2026-04-25 05:30 20.27969 -155.47805 21454 ft 465 kts 76°
2026-04-25 05:31 20.28696 -155.44439 21684 ft 467 kts 76°
2026-04-25 05:31 20.29426 -155.41056 21919 ft 469 kts 76°
2026-04-25 05:31 20.30156 -155.37664 22147 ft 471 kts 76°
2026-04-25 05:31 20.30889 -155.34256 22381 ft 473 kts 76°
2026-04-25 05:32 20.31622 -155.30838 22618 ft 474 kts 76°
2026-04-25 05:32 20.32356 -155.27415 22847 ft 475 kts 76°
2026-04-25 05:32 20.33094 -155.23972 23022 ft 478 kts 76°
2026-04-25 05:32 20.33834 -155.20515 23230 ft 479 kts 76°
2026-04-25 05:33 20.34575 -155.17048 23451 ft 481 kts 76°
2026-04-25 05:33 20.35318 -155.13568 23638 ft 482 kts 76°
2026-04-25 05:33 20.36062 -155.10079 23821 ft 484 kts 76°
2026-04-25 05:33 20.36810 -155.06573 23971 ft 486 kts 76°
2026-04-25 05:34 20.37557 -155.03063 24132 ft 487 kts 76°
2026-04-25 05:34 20.38306 -154.99541 24288 ft 488 kts 76°
2026-04-25 05:34 20.39056 -154.96008 24457 ft 489 kts 76°
2026-04-25 05:34 20.39808 -154.92467 24643 ft 490 kts 76°
2026-04-25 05:35 20.40560 -154.88920 24774 ft 492 kts 76°
2026-04-25 05:35 20.41315 -154.85358 24941 ft 493 kts 76°
2026-04-25 05:35 20.42069 -154.81793 25114 ft 493 kts 76°
2026-04-25 05:35 20.42825 -154.78218 25232 ft 495 kts 76°
2026-04-25 05:36 20.43582 -154.74631 25396 ft 496 kts 76°
2026-04-25 05:36 20.44328 -154.71092 25600 ft 496 kts 76°
2026-04-25 05:36 20.45082 -154.67513 25868 ft 494 kts 76°
2026-04-25 05:36 20.45841 -154.63903 26127 ft 493 kts 76°
2026-04-25 05:37 20.46591 -154.60334 26356 ft 492 kts 76°
2026-04-25 05:37 20.47338 -154.56776 26583 ft 492 kts 76°
2026-04-25 05:37 20.48086 -154.53213 26829 ft 492 kts 76°
2026-04-25 05:37 20.48830 -154.49663 27080 ft 491 kts 76°
2026-04-25 05:38 20.49574 -154.46107 27333 ft 490 kts 76°
2026-04-25 05:38 20.50307 -154.42605 27583 ft 490 kts 76°
2026-04-25 05:38 20.51048 -154.39060 27836 ft 490 kts 76°
2026-04-25 05:38 20.51786 -154.35520 28070 ft 490 kts 77°
2026-04-25 05:39 20.52525 -154.31972 28300 ft 490 kts 77°
2026-04-25 05:39 20.53262 -154.28435 28599 ft 488 kts 77°
2026-04-25 05:39 20.54006 -154.24853 28877 ft 487 kts 76°
2026-04-25 05:39 20.54729 -154.21372 29134 ft 487 kts 76°
2026-04-25 05:40 20.55462 -154.17843 29388 ft 487 kts 76°
2026-04-25 05:40 20.56194 -154.14314 29637 ft 487 kts 76°
2026-04-25 05:40 20.56924 -154.10794 29923 ft 486 kts 76°
2026-04-25 05:40 20.57652 -154.07276 30205 ft 485 kts 77°
2026-04-25 05:41 20.58378 -154.03760 30401 ft 485 kts 77°
2026-04-25 05:41 20.59105 -154.00239 30589 ft 486 kts 77°
2026-04-25 05:41 20.59831 -153.96716 30770 ft 486 kts 77°
2026-04-25 05:41 20.60558 -153.93190 30976 ft 486 kts 77°
2026-04-25 05:42 20.61284 -153.89662 31161 ft 487 kts 77°
2026-04-25 05:42 20.62009 -153.86133 31332 ft 488 kts 77°
2026-04-25 05:42 20.62735 -153.82595 31521 ft 488 kts 77°
2026-04-25 05:42 20.63461 -153.79055 31743 ft 488 kts 77°
2026-04-25 05:43 20.64186 -153.75516 31927 ft 488 kts 77°
2026-04-25 05:43 20.64911 -153.71974 32078 ft 490 kts 77°
2026-04-25 05:43 20.65639 -153.68415 32245 ft 490 kts 77°
2026-04-25 05:43 20.66365 -153.64859 32445 ft 490 kts 77°
2026-04-25 05:44 20.67090 -153.61306 32611 ft 491 kts 77°
2026-04-25 05:44 20.67816 -153.57742 32752 ft 492 kts 77°
2026-04-25 05:44 20.68544 -153.54167 32918 ft 493 kts 77°
2026-04-25 05:44 20.69270 -153.50593 33121 ft 493 kts 77°
2026-04-25 05:45 20.69997 -153.47016 33266 ft 493 kts 77°
2026-04-25 05:45 20.70724 -153.43431 33410 ft 494 kts 77°
2026-04-25 05:45 20.71450 -153.39848 33574 ft 495 kts 77°
2026-04-25 05:45 20.72177 -153.36255 33770 ft 494 kts 77°
2026-04-25 05:46 20.72903 -153.32664 33905 ft 495 kts 77°
2026-04-25 05:46 20.73630 -153.29064 34043 ft 496 kts 77°
2026-04-25 05:46 20.74356 -153.25465 34185 ft 496 kts 77°
2026-04-25 05:46 20.75081 -153.21866 34361 ft 495 kts 77°
2026-04-25 05:47 20.75805 -153.18267 34525 ft 495 kts 77°
2026-04-25 05:47 20.76528 -153.14671 34629 ft 496 kts 77°
2026-04-25 05:47 20.77252 -153.11068 34743 ft 496 kts 77°
2026-04-25 05:47 20.77976 -153.07459 34886 ft 496 kts 77°
2026-04-25 05:48 20.78697 -153.03862 35019 ft 496 kts 77°
2026-04-25 05:48 20.80871 -152.96879 35057 ft 496 kts 61°
2026-04-25 05:49 20.84127 -152.90402 35066 ft 495 kts 59°
2026-04-25 05:49 20.87431 -152.83952 35068 ft 495 kts 60°
2026-04-25 05:50 20.90689 -152.77473 35065 ft 495 kts 60°
2026-04-25 05:50 20.93892 -152.71019 35063 ft 494 kts 60°
2026-04-25 05:51 20.97103 -152.64521 35063 ft 494 kts 60°
2026-04-25 05:51 21.00306 -152.58035 35065 ft 493 kts 60°
2026-04-25 05:52 21.03506 -152.51555 35065 ft 492 kts 60°
2026-04-25 05:52 21.06695 -152.45088 35062 ft 491 kts 60°
2026-04-25 05:53 21.09876 -152.38633 35061 ft 490 kts 60°
2026-04-25 05:53 21.13047 -152.32188 35066 ft 489 kts 61°
2026-04-25 05:54 21.16213 -152.25747 35061 ft 488 kts 61°
2026-04-25 05:54 21.20950 -152.16094 35063 ft 488 kts 61°
2026-04-25 05:55 21.24103 -152.09659 35063 ft 487 kts 61°
2026-04-25 05:55 21.27249 -152.03231 35064 ft 487 kts 61°
2026-04-25 05:56 21.30390 -151.96804 35063 ft 487 kts 61°
2026-04-25 05:56 21.33507 -151.90420 35081 ft 486 kts 61°
2026-04-25 05:57 21.36642 -151.83991 35066 ft 486 kts 61°
2026-04-25 05:57 21.39769 -151.77570 35064 ft 485 kts 61°
2026-04-25 05:58 21.42886 -151.71162 35067 ft 484 kts 61°
2026-04-25 05:58 21.45998 -151.64757 35064 ft 483 kts 62°
2026-04-25 05:59 21.49099 -151.58366 35066 ft 482 kts 62°
2026-04-25 05:59 21.52194 -151.51980 35067 ft 482 kts 62°
2026-04-25 06:00 21.55281 -151.45598 35066 ft 481 kts 62°
2026-04-25 06:00 21.58314 -151.39193 35067 ft 481 kts 62°
2026-04-25 06:01 21.61315 -151.32783 35068 ft 480 kts 62°
2026-04-25 06:01 21.64316 -151.26374 35069 ft 480 kts 62°
2026-04-25 06:02 21.67317 -151.19971 35072 ft 480 kts 62°
2026-04-25 06:02 21.70318 -151.13565 35068 ft 480 kts 62°
2026-04-25 06:03 21.73318 -151.07156 35073 ft 480 kts 62°
2026-04-25 06:03 21.76314 -151.00747 35076 ft 480 kts 62°
2026-04-25 06:04 21.79313 -150.94322 35071 ft 480 kts 62°
2026-04-25 06:04 21.82308 -150.87897 35072 ft 481 kts 62°
2026-04-25 06:05 21.85287 -150.81501 35072 ft 481 kts 62°
2026-04-25 06:05 21.88284 -150.75056 35074 ft 481 kts 62°
2026-04-25 06:06 21.91277 -150.68613 35074 ft 481 kts 62°
2026-04-25 06:06 21.94271 -150.62157 35074 ft 482 kts 62°
2026-04-25 06:07 21.97259 -150.55707 35073 ft 481 kts 62°
2026-04-25 06:07 22.00248 -150.49249 35067 ft 481 kts 62°
2026-04-25 06:08 22.03229 -150.42797 35066 ft 481 kts 63°
2026-04-25 06:08 22.06205 -150.36350 35081 ft 480 kts 63°
2026-04-25 06:09 22.09177 -150.29901 35073 ft 480 kts 63°
2026-04-25 06:09 22.12143 -150.23460 35081 ft 479 kts 63°
2026-04-25 06:10 22.15104 -150.17019 35082 ft 479 kts 63°
2026-04-25 06:10 22.18061 -150.10580 35068 ft 479 kts 63°
2026-04-25 06:11 22.21014 -150.04142 35079 ft 479 kts 63°
2026-04-25 06:11 22.23962 -149.97704 35077 ft 478 kts 63°
2026-04-25 06:12 22.26907 -149.91267 35084 ft 478 kts 63°
2026-04-25 06:12 22.29849 -149.84828 35075 ft 478 kts 63°
2026-04-25 06:13 22.32789 -149.78383 35080 ft 478 kts 63°
2026-04-25 06:14 22.37177 -149.68750 35078 ft 478 kts 63°
2026-04-25 06:14 22.40112 -149.62297 35074 ft 479 kts 63°
2026-04-25 06:15 22.43046 -149.55838 35081 ft 479 kts 63°
2026-04-25 06:15 22.45977 -149.49376 35077 ft 479 kts 63°
2026-04-25 06:16 22.48909 -149.42905 35074 ft 479 kts 63°
2026-04-25 06:16 22.51838 -149.36432 35083 ft 479 kts 63°
2026-04-25 06:17 22.54762 -149.29960 35078 ft 479 kts 63°
2026-04-25 06:17 22.57213 -149.24529 35080 ft 479 kts 63°
2026-04-25 06:18 22.60116 -149.18089 35079 ft 479 kts 63°
2026-04-25 06:18 22.63038 -149.11598 35080 ft 480 kts 63°
2026-04-25 06:19 22.65956 -149.05108 35077 ft 479 kts 63°
2026-04-25 06:19 22.68873 -148.98611 35084 ft 479 kts 63°
2026-04-25 06:20 22.71785 -148.92116 35086 ft 479 kts 63°
2026-04-25 06:20 22.74692 -148.85624 35087 ft 479 kts 63°
2026-04-25 06:21 22.77595 -148.79132 35086 ft 479 kts 63°
2026-04-25 06:21 22.80498 -148.72633 35076 ft 479 kts 63°
2026-04-25 06:22 22.83398 -148.66131 35081 ft 479 kts 63°
2026-04-25 06:22 22.86293 -148.59630 35084 ft 479 kts 63°
2026-04-25 06:23 22.89187 -148.53126 35086 ft 479 kts 63°
2026-04-25 06:23 22.92078 -148.46617 35079 ft 479 kts 63°
2026-04-25 06:24 22.94964 -148.40111 35084 ft 479 kts 63°
2026-04-25 06:24 22.97849 -148.33600 35085 ft 479 kts 63°
2026-04-25 06:25 23.00728 -148.27093 35084 ft 479 kts 63°
2026-04-25 06:25 23.03588 -148.20619 35087 ft 479 kts 63°
2026-04-25 06:26 23.06464 -148.14101 35085 ft 479 kts 63°
2026-04-25 06:26 23.09337 -148.07582 35088 ft 479 kts 63°
2026-04-25 06:27 23.12206 -148.01061 35089 ft 478 kts 63°
2026-04-25 06:27 23.15073 -147.94538 35087 ft 478 kts 63°
2026-04-25 06:28 23.17938 -147.88010 35087 ft 478 kts 63°
2026-04-25 06:28 23.20798 -147.81482 35089 ft 478 kts 63°
2026-04-25 06:29 23.23657 -147.74951 35088 ft 478 kts 63°
2026-04-25 06:29 23.26512 -147.68418 35086 ft 478 kts 63°
2026-04-25 06:30 23.29367 -147.61876 35089 ft 478 kts 63°
2026-04-25 06:30 23.32217 -147.55337 35090 ft 478 kts 63°
2026-04-25 06:31 23.35065 -147.48794 35088 ft 478 kts 63°
2026-04-25 06:31 23.37909 -147.42250 35090 ft 478 kts 63°
2026-04-25 06:32 23.40749 -147.35707 35090 ft 478 kts 63°
2026-04-25 06:32 23.43588 -147.29156 35091 ft 478 kts 63°
2026-04-25 06:33 23.46405 -147.22649 35090 ft 478 kts 63°
2026-04-25 06:33 23.49235 -147.16100 35093 ft 478 kts 63°
2026-04-25 06:34 23.52064 -147.09548 35094 ft 478 kts 63°
2026-04-25 06:34 23.54890 -147.02991 35093 ft 478 kts 63°
2026-04-25 06:35 23.57712 -146.96433 35092 ft 478 kts 63°
2026-04-25 06:35 23.60530 -146.89878 35095 ft 478 kts 63°
2026-04-25 06:36 23.63348 -146.83312 35092 ft 478 kts 63°
2026-04-25 06:36 23.66163 -146.76743 35092 ft 478 kts 63°
2026-04-25 06:37 23.68976 -146.70172 35093 ft 478 kts 63°
2026-04-25 06:37 23.71788 -146.63592 35092 ft 478 kts 63°
2026-04-25 06:38 23.74595 -146.57014 35095 ft 479 kts 63°
2026-04-25 06:38 23.77406 -146.50419 35095 ft 479 kts 63°
2026-04-25 06:39 23.80212 -146.43825 35097 ft 479 kts 63°
2026-04-25 06:39 23.83015 -146.37230 35096 ft 479 kts 63°
2026-04-25 06:40 23.85818 -146.30623 35098 ft 479 kts 63°
2026-04-25 06:40 23.88620 -146.24013 35099 ft 479 kts 63°
2026-04-25 06:41 23.91416 -146.17403 35101 ft 480 kts 63°
2026-04-25 06:41 23.94213 -146.10783 35099 ft 480 kts 63°
2026-04-25 06:42 23.96991 -146.04200 35100 ft 480 kts 63°
2026-04-25 06:42 23.99761 -145.97625 35106 ft 480 kts 63°
2026-04-25 06:43 24.02550 -145.90994 35103 ft 480 kts 63°
2026-04-25 06:43 24.05337 -145.84360 35104 ft 480 kts 63°
2026-04-25 06:44 24.08094 -145.77787 35103 ft 480 kts 63°
2026-04-25 06:44 24.10791 -145.71349 35098 ft 480 kts 63°
2026-04-25 06:45 24.13408 -145.65092 35098 ft 479 kts 64°
2026-04-25 06:45 24.16180 -145.58456 35106 ft 479 kts 63°
2026-04-25 06:46 24.18944 -145.51829 35112 ft 479 kts 63°
2026-04-25 06:46 24.21711 -145.45184 35107 ft 480 kts 63°
2026-04-25 06:47 24.24476 -145.38534 35115 ft 480 kts 63°
2026-04-25 06:47 24.27237 -145.31884 35107 ft 480 kts 63°
2026-04-25 06:48 24.29999 -145.25224 35113 ft 480 kts 63°
2026-04-25 06:48 24.32755 -145.18566 35114 ft 480 kts 63°
2026-04-25 06:49 24.35507 -145.11906 35116 ft 481 kts 63°
2026-04-25 06:49 24.37944 -145.06002 35115 ft 481 kts 63°
2026-04-25 06:50 24.40694 -144.99330 35116 ft 482 kts 63°
2026-04-25 06:50 24.43454 -144.92635 35110 ft 482 kts 63°
2026-04-25 06:51 24.46219 -144.85926 35114 ft 482 kts 63°
2026-04-25 06:51 24.48980 -144.79214 35117 ft 483 kts 63°
2026-04-25 06:52 24.51739 -144.72493 35119 ft 483 kts 63°
2026-04-25 06:52 24.54481 -144.65804 35119 ft 483 kts 63°
2026-04-25 06:53 24.56957 -144.59758 35119 ft 483 kts 63°
2026-04-25 06:53 24.59711 -144.53019 35121 ft 483 kts 63°
2026-04-25 06:54 24.62463 -144.46276 35119 ft 484 kts 63°
2026-04-25 06:54 24.65212 -144.39531 35120 ft 484 kts 63°
2026-04-25 06:55 24.67960 -144.32776 35120 ft 484 kts 63°
2026-04-25 06:55 24.70669 -144.26108 35122 ft 484 kts 63°
2026-04-25 06:56 24.73391 -144.19398 35122 ft 484 kts 63°
2026-04-25 06:56 24.76131 -144.12633 35127 ft 484 kts 63°
2026-04-25 06:57 24.78866 -144.05869 35123 ft 484 kts 63°
2026-04-25 06:57 24.81601 -143.99095 35129 ft 484 kts 63°
2026-04-25 06:58 24.83874 -143.93458 35126 ft 484 kts 63°
2026-04-25 06:58 24.86779 -143.86242 35126 ft 485 kts 63°
2026-04-25 06:59 24.89047 -143.80600 35128 ft 485 kts 63°
2026-04-25 06:59 24.91929 -143.73420 35126 ft 485 kts 63°
2026-04-25 07:00 24.94655 -143.66617 35124 ft 485 kts 63°
2026-04-25 07:00 24.97305 -143.59993 35126 ft 485 kts 63°
2026-04-25 07:01 25.00027 -143.53181 35134 ft 486 kts 63°
2026-04-25 07:01 25.02747 -143.46360 35128 ft 486 kts 63°
2026-04-25 07:02 25.05444 -143.39588 35131 ft 486 kts 63°
2026-04-25 07:02 25.08158 -143.32762 35126 ft 486 kts 63°
2026-04-25 07:03 25.10833 -143.26023 35133 ft 486 kts 63°
2026-04-25 07:03 25.13541 -143.19192 35135 ft 486 kts 63°
2026-04-25 07:04 25.16247 -143.12354 35132 ft 486 kts 63°
2026-04-25 07:04 25.17867 -143.08253 35135 ft 486 kts 63°
2026-04-25 07:05 25.20111 -143.02570 35134 ft 486 kts 63°
2026-04-25 07:05 25.23264 -142.94568 35137 ft 486 kts 63°
2026-04-25 07:06 25.25845 -142.88009 35138 ft 486 kts 63°
2026-04-25 07:06 25.28100 -142.82268 35139 ft 486 kts 63°
2026-04-25 07:07 25.30770 -142.75463 35139 ft 486 kts 63°
2026-04-25 07:07 25.33065 -142.69604 35135 ft 487 kts 63°
2026-04-25 07:08 25.35346 -142.63773 35134 ft 487 kts 63°
2026-04-25 07:08 25.37789 -142.57518 35137 ft 488 kts 63°
2026-04-25 07:09 25.40287 -142.51113 35139 ft 488 kts 63°
2026-04-25 07:09 25.42976 -142.44208 35140 ft 489 kts 63°
2026-04-25 07:10 25.45668 -142.37284 35135 ft 490 kts 63°
2026-04-25 07:10 25.47507 -142.32546 35136 ft 490 kts 63°
2026-04-25 07:11 25.50174 -142.25667 35142 ft 491 kts 63°
2026-04-25 07:11 25.52864 -142.18716 35135 ft 491 kts 63°
2026-04-25 07:12 25.55547 -142.11771 35137 ft 491 kts 63°
2026-04-25 07:12 25.59566 -142.01347 35143 ft 491 kts 63°
2026-04-25 07:13 25.62241 -141.94396 35143 ft 490 kts 63°
2026-04-25 07:13 25.64912 -141.87440 35132 ft 490 kts 63°
2026-04-25 07:14 25.67577 -141.80492 35137 ft 490 kts 63°
2026-04-25 07:14 25.70236 -141.73547 35142 ft 489 kts 63°
2026-04-25 07:15 25.72893 -141.66594 35141 ft 489 kts 63°
2026-04-25 07:15 25.75525 -141.59697 35138 ft 489 kts 63°
2026-04-25 07:16 25.78172 -141.52747 35137 ft 489 kts 63°
2026-04-25 07:16 25.80815 -141.45796 35136 ft 489 kts 63°
2026-04-25 07:17 25.83454 -141.38843 35135 ft 489 kts 64°
2026-04-25 07:17 25.86091 -141.31887 35140 ft 489 kts 64°
2026-04-25 07:18 25.88725 -141.24924 35141 ft 489 kts 63°
2026-04-25 07:18 25.91355 -141.17961 35140 ft 489 kts 64°
2026-04-25 07:19 25.93983 -141.10991 35141 ft 489 kts 64°
2026-04-25 07:19 25.96604 -141.04026 35139 ft 489 kts 64°
2026-04-25 07:20 25.99226 -140.97049 35142 ft 489 kts 64°
2026-04-25 07:20 26.01844 -140.90070 35139 ft 489 kts 64°
2026-04-25 07:21 26.04457 -140.83090 35141 ft 489 kts 64°
2026-04-25 07:21 26.07050 -140.76153 35141 ft 489 kts 64°
2026-04-25 07:22 26.09673 -140.69123 35140 ft 489 kts 64°
2026-04-25 07:22 26.12260 -140.62178 35141 ft 489 kts 64°
2026-04-25 07:23 26.14860 -140.55186 35142 ft 489 kts 64°
2026-04-25 07:23 26.17456 -140.48192 35146 ft 489 kts 64°
2026-04-25 07:24 26.20051 -140.41191 35142 ft 489 kts 64°
2026-04-25 07:24 26.22640 -140.34190 35141 ft 489 kts 64°
2026-04-25 07:25 26.25229 -140.27179 35142 ft 489 kts 64°
2026-04-25 07:25 26.27813 -140.20170 35141 ft 489 kts 64°
2026-04-25 07:26 26.30396 -140.13149 35148 ft 489 kts 64°
2026-04-25 07:26 26.32973 -140.06134 35144 ft 489 kts 64°
2026-04-25 07:27 26.35548 -139.99111 35146 ft 489 kts 64°
2026-04-25 07:27 26.38120 -139.92086 35142 ft 489 kts 64°
2026-04-25 07:28 26.40690 -139.85049 35146 ft 490 kts 64°
2026-04-25 07:28 26.43255 -139.78017 35147 ft 490 kts 64°
2026-04-25 07:29 26.45818 -139.70977 35146 ft 490 kts 64°
2026-04-25 07:29 26.48374 -139.63945 35145 ft 490 kts 64°
2026-04-25 07:30 26.50932 -139.56893 35157 ft 490 kts 64°
2026-04-25 07:30 26.53486 -139.49839 35146 ft 490 kts 64°
2026-04-25 07:31 26.56038 -139.42778 35144 ft 490 kts 64°
2026-04-25 07:31 26.58586 -139.35715 35152 ft 490 kts 64°
2026-04-25 07:32 26.61132 -139.28646 35151 ft 491 kts 64°
2026-04-25 07:32 26.63677 -139.21566 35150 ft 491 kts 64°
2026-04-25 07:33 26.66218 -139.14485 35151 ft 491 kts 64°
2026-04-25 07:33 26.68758 -139.07393 35148 ft 491 kts 64°
2026-04-25 07:34 26.71295 -139.00296 35148 ft 492 kts 64°
2026-04-25 07:34 26.73832 -138.93190 35149 ft 492 kts 64°
2026-04-25 07:35 26.76348 -138.86124 35149 ft 492 kts 64°
2026-04-25 07:35 26.78881 -138.79002 35148 ft 493 kts 64°
2026-04-25 07:36 26.81410 -138.71874 35151 ft 493 kts 64°
2026-04-25 07:36 26.83941 -138.64727 35149 ft 494 kts 64°
2026-04-25 07:37 26.86468 -138.57581 35148 ft 494 kts 64°
2026-04-25 07:37 26.88994 -138.50422 35153 ft 494 kts 64°
2026-04-25 07:38 26.91519 -138.43253 35154 ft 495 kts 64°
2026-04-25 07:38 26.94041 -138.36081 35152 ft 495 kts 64°
2026-04-25 07:39 26.96560 -138.28899 35149 ft 495 kts 64°
2026-04-25 07:39 26.99078 -138.21710 35149 ft 496 kts 64°
2026-04-25 07:40 27.01591 -138.14515 35148 ft 496 kts 64°
2026-04-25 07:40 27.04100 -138.07305 35151 ft 496 kts 64°
2026-04-25 07:41 27.06604 -138.00094 35148 ft 497 kts 64°
2026-04-25 07:41 27.09108 -137.92869 35149 ft 497 kts 64°
2026-04-25 07:42 27.11613 -137.85629 35150 ft 498 kts 64°
2026-04-25 07:42 27.14116 -137.78380 35151 ft 498 kts 64°
2026-04-25 07:43 27.16616 -137.71127 35150 ft 499 kts 64°
2026-04-25 07:43 27.19117 -137.63854 35152 ft 499 kts 64°
2026-04-25 07:44 27.21616 -137.56577 35153 ft 500 kts 64°
2026-04-25 07:44 27.24114 -137.49286 35150 ft 501 kts 65°
2026-04-25 07:45 27.26613 -137.41976 35153 ft 501 kts 65°
2026-04-25 07:45 27.29114 -137.34648 35151 ft 502 kts 65°
2026-04-25 07:46 27.31613 -137.27313 35156 ft 503 kts 65°
2026-04-25 07:46 27.34110 -137.19966 35152 ft 503 kts 65°
2026-04-25 07:47 27.36609 -137.12601 35149 ft 504 kts 65°
2026-04-25 07:47 27.39088 -137.05278 35146 ft 505 kts 65°
2026-04-25 07:48 27.41599 -136.97847 35153 ft 505 kts 65°
2026-04-25 07:48 27.44078 -136.90495 35150 ft 506 kts 65°
2026-04-25 07:49 27.46575 -136.83077 35153 ft 507 kts 65°
2026-04-25 07:49 27.49070 -136.75649 35153 ft 508 kts 65°
2026-04-25 07:50 27.51565 -136.68203 35146 ft 508 kts 65°
2026-04-25 07:50 27.53654 -136.61961 35150 ft 509 kts 65°
2026-04-25 07:51 27.56550 -136.53285 35148 ft 509 kts 65°
2026-04-25 07:51 27.59042 -136.45805 35151 ft 510 kts 65°
2026-04-25 07:52 27.61113 -136.39577 35149 ft 511 kts 66°
2026-04-25 07:52 27.63604 -136.32071 35151 ft 511 kts 66°
2026-04-25 07:53 27.66094 -136.24552 35144 ft 512 kts 66°
2026-04-25 07:53 27.68583 -136.17018 35145 ft 513 kts 66°
2026-04-25 07:54 27.71071 -136.09474 35147 ft 513 kts 66°
2026-04-25 07:54 27.73560 -136.01913 35141 ft 514 kts 66°
2026-04-25 07:55 27.76045 -135.94345 35147 ft 515 kts 66°
2026-04-25 07:55 27.78532 -135.86756 35144 ft 515 kts 66°
2026-04-25 07:56 27.81015 -135.79161 35149 ft 516 kts 66°
2026-04-25 07:56 27.83499 -135.71549 35139 ft 516 kts 66°
2026-04-25 07:57 27.85980 -135.63932 35145 ft 517 kts 66°
2026-04-25 07:57 27.88459 -135.56301 35145 ft 518 kts 66°
2026-04-25 07:58 27.90923 -135.48702 35144 ft 518 kts 66°
2026-04-25 07:58 27.93401 -135.41041 35146 ft 519 kts 67°
2026-04-25 07:59 27.95878 -135.33367 35143 ft 520 kts 67°
2026-04-25 07:59 27.98355 -135.25677 35146 ft 521 kts 67°
2026-04-25 08:00 28.00831 -135.17975 35143 ft 521 kts 67°
2026-04-25 08:00 28.03307 -135.10255 35143 ft 522 kts 67°
2026-04-25 08:01 28.05784 -135.02514 35146 ft 523 kts 67°
2026-04-25 08:01 28.08259 -134.94762 35144 ft 524 kts 67°
2026-04-25 08:02 28.10735 -134.86991 35146 ft 525 kts 67°
2026-04-25 08:02 28.13211 -134.79199 35143 ft 526 kts 67°
2026-04-25 08:03 28.15684 -134.71402 35146 ft 527 kts 68°
2026-04-25 08:03 28.18141 -134.63638 35146 ft 527 kts 68°
2026-04-25 08:04 28.20614 -134.55806 35138 ft 528 kts 68°
2026-04-25 08:04 28.23086 -134.47958 35143 ft 529 kts 68°
2026-04-25 08:05 28.25557 -134.40097 35143 ft 529 kts 68°
2026-04-25 08:05 28.28024 -134.32227 35142 ft 530 kts 68°
2026-04-25 08:06 28.30491 -134.24342 35141 ft 530 kts 68°
2026-04-25 08:06 28.32956 -134.16445 35141 ft 531 kts 68°
2026-04-25 08:07 28.35418 -134.08541 35140 ft 532 kts 68°
2026-04-25 08:07 28.37879 -134.00621 35143 ft 532 kts 68°
2026-04-25 08:08 28.40337 -133.92690 35142 ft 533 kts 69°
2026-04-25 08:08 28.42796 -133.84740 35139 ft 533 kts 69°
2026-04-25 08:09 28.45235 -133.76835 35141 ft 534 kts 69°
2026-04-25 08:09 28.47704 -133.68814 35140 ft 535 kts 69°
2026-04-25 08:10 28.50140 -133.60879 35136 ft 536 kts 69°
2026-04-25 08:10 28.52593 -133.52872 35142 ft 536 kts 69°
2026-04-25 08:11 28.55041 -133.44863 35143 ft 537 kts 69°
2026-04-25 08:11 28.57488 -133.36836 35142 ft 537 kts 69°
2026-04-25 08:12 28.59934 -133.28796 35137 ft 538 kts 69°
2026-04-25 08:12 28.62376 -133.20747 35136 ft 538 kts 69°
2026-04-25 08:13 28.64813 -133.12695 35141 ft 538 kts 69°
2026-04-25 08:14 28.68464 -133.00597 35133 ft 539 kts 70°
2026-04-25 08:14 28.70893 -132.92524 35143 ft 539 kts 70°
2026-04-25 08:15 28.73321 -132.84436 35142 ft 539 kts 70°
2026-04-25 08:15 28.75741 -132.76351 35136 ft 539 kts 70°
2026-04-25 08:16 28.78160 -132.68252 35140 ft 540 kts 70°
2026-04-25 08:16 28.80574 -132.60151 35142 ft 540 kts 70°
2026-04-25 08:17 28.82984 -132.52043 35142 ft 540 kts 70°
2026-04-25 08:17 28.85391 -132.43920 35143 ft 541 kts 70°
2026-04-25 08:18 28.87780 -132.35842 35139 ft 541 kts 70°
2026-04-25 08:18 28.90182 -132.27701 35139 ft 542 kts 70°
2026-04-25 08:19 28.92581 -132.19548 35142 ft 542 kts 70°
2026-04-25 08:19 28.94976 -132.11387 35139 ft 543 kts 70°
2026-04-25 08:20 28.97369 -132.03214 35138 ft 543 kts 71°
2026-04-25 08:20 28.99759 -131.95031 35145 ft 543 kts 71°
2026-04-25 08:21 29.02147 -131.86834 35142 ft 543 kts 71°
2026-04-25 08:21 29.04528 -131.78638 35140 ft 544 kts 71°
2026-04-25 08:22 29.06906 -131.70432 35139 ft 544 kts 71°
2026-04-25 08:22 29.09279 -131.62224 35141 ft 544 kts 71°
2026-04-25 08:23 29.11649 -131.54004 35139 ft 544 kts 71°
2026-04-25 08:23 29.14013 -131.45782 35141 ft 544 kts 71°
2026-04-25 08:24 29.16375 -131.37548 35137 ft 545 kts 71°
2026-04-25 08:24 29.18730 -131.29317 35139 ft 545 kts 71°
2026-04-25 08:25 29.21081 -131.21076 35138 ft 545 kts 71°
2026-04-25 08:25 29.23430 -131.12822 35136 ft 545 kts 72°
2026-04-25 08:26 29.25773 -131.04569 35136 ft 545 kts 72°
2026-04-25 08:26 29.28109 -130.96318 35145 ft 545 kts 72°
2026-04-25 08:27 29.30443 -130.88056 35142 ft 545 kts 72°
2026-04-25 08:27 29.32756 -130.79838 35141 ft 545 kts 72°
2026-04-25 08:28 29.35078 -130.71570 35142 ft 545 kts 72°
2026-04-25 08:28 29.37398 -130.63288 35137 ft 545 kts 72°
2026-04-25 08:29 29.39710 -130.55008 35132 ft 546 kts 72°
2026-04-25 08:29 29.42020 -130.46718 35138 ft 546 kts 72°
2026-04-25 08:30 29.44325 -130.38422 35137 ft 546 kts 72°
2026-04-25 08:30 29.46625 -130.30121 35138 ft 546 kts 72°
2026-04-25 08:31 29.48919 -130.21818 35131 ft 546 kts 72°
2026-04-25 08:31 29.51210 -130.13505 35130 ft 546 kts 72°
2026-04-25 08:32 29.53492 -130.05203 35129 ft 546 kts 72°
2026-04-25 08:32 29.55773 -129.96883 35127 ft 546 kts 73°
2026-04-25 08:33 29.58046 -129.88568 35130 ft 546 kts 73°
2026-04-25 08:33 29.60313 -129.80250 35128 ft 546 kts 73°
2026-04-25 08:34 29.62574 -129.71933 35124 ft 545 kts 73°
2026-04-25 08:34 29.64830 -129.63611 35132 ft 545 kts 73°
2026-04-25 08:35 29.67067 -129.55340 35131 ft 545 kts 73°
2026-04-25 08:35 29.69313 -129.47009 35121 ft 545 kts 73°
2026-04-25 08:36 29.71553 -129.38679 35122 ft 545 kts 73°
2026-04-25 08:36 29.73788 -129.30343 35123 ft 545 kts 73°
2026-04-25 08:37 29.76017 -129.22007 35125 ft 545 kts 73°
2026-04-25 08:37 29.78243 -129.13662 35132 ft 545 kts 73°
2026-04-25 08:38 29.80458 -129.05329 35125 ft 545 kts 73°
2026-04-25 08:38 29.82671 -128.96983 35124 ft 545 kts 73°
2026-04-25 08:39 29.84881 -128.88627 35127 ft 545 kts 73°
2026-04-25 08:39 29.87084 -128.80269 35120 ft 545 kts 74°
2026-04-25 08:40 29.89281 -128.71915 35120 ft 545 kts 74°
2026-04-25 08:40 29.91105 -128.64959 35119 ft 545 kts 74°
2026-04-25 08:41 29.93663 -128.55176 35118 ft 545 kts 74°
2026-04-25 08:41 29.95832 -128.46855 35118 ft 546 kts 74°
2026-04-25 08:42 29.97659 -128.39830 35116 ft 546 kts 74°
2026-04-25 08:42 29.99831 -128.31451 35121 ft 546 kts 74°
2026-04-25 08:43 30.02353 -128.21697 35117 ft 546 kts 74°
2026-04-25 08:43 30.04166 -128.14663 35121 ft 546 kts 74°
2026-04-25 08:44 30.06310 -128.06323 35118 ft 546 kts 74°
2026-04-25 08:44 30.08462 -127.97929 35118 ft 545 kts 74°
2026-04-25 08:45 30.10609 -127.89529 35116 ft 545 kts 75°
2026-04-25 08:45 30.12750 -127.81128 35118 ft 545 kts 75°
2026-04-25 08:46 30.14885 -127.72722 35116 ft 545 kts 75°
2026-04-25 08:46 30.17014 -127.64318 35114 ft 545 kts 75°
2026-04-25 08:47 30.19139 -127.55905 35113 ft 545 kts 75°
2026-04-25 08:47 30.21257 -127.47495 35116 ft 545 kts 75°
2026-04-25 08:48 30.23371 -127.39078 35113 ft 545 kts 75°
2026-04-25 08:48 30.25479 -127.30657 35109 ft 545 kts 75°
2026-04-25 08:49 30.27581 -127.22238 35114 ft 545 kts 75°
2026-04-25 08:49 30.29680 -127.13804 35107 ft 545 kts 75°
2026-04-25 08:50 30.31771 -127.05374 35107 ft 545 kts 75°
2026-04-25 08:50 30.33857 -126.96941 35113 ft 545 kts 75°
2026-04-25 08:51 30.35937 -126.88508 35108 ft 545 kts 75°
2026-04-25 08:51 30.38012 -126.80070 35106 ft 545 kts 76°
2026-04-25 08:52 30.40077 -126.71644 35104 ft 544 kts 76°
2026-04-25 08:52 30.42139 -126.63209 35105 ft 544 kts 76°
2026-04-25 08:53 30.44195 -126.54769 35104 ft 544 kts 76°
2026-04-25 08:53 30.46230 -126.46390 35104 ft 544 kts 76°
2026-04-25 08:54 30.48273 -126.37955 35102 ft 544 kts 76°
2026-04-25 08:54 30.50310 -126.29516 35104 ft 544 kts 76°
2026-04-25 08:55 30.52343 -126.21068 35099 ft 544 kts 76°
2026-04-25 08:55 30.54370 -126.12618 35098 ft 544 kts 76°
2026-04-25 08:56 30.56392 -126.04165 35095 ft 544 kts 76°
2026-04-25 08:56 30.58409 -125.95705 35099 ft 544 kts 77°
2026-04-25 08:57 30.60419 -125.87246 35097 ft 544 kts 77°
2026-04-25 08:57 30.62428 -125.78768 35094 ft 544 kts 77°
2026-04-25 08:58 30.64430 -125.70291 35097 ft 545 kts 77°
2026-04-25 08:58 30.66427 -125.61809 35094 ft 545 kts 77°
2026-04-25 08:59 30.68420 -125.53318 35090 ft 545 kts 77°
2026-04-25 08:59 30.70408 -125.44818 35093 ft 545 kts 77°
2026-04-25 09:00 30.72391 -125.36314 35087 ft 545 kts 77°
2026-04-25 09:00 30.74370 -125.27802 35094 ft 546 kts 77°
2026-04-25 09:01 30.76346 -125.19274 35085 ft 546 kts 77°
2026-04-25 09:01 30.78315 -125.10747 35090 ft 546 kts 77°
2026-04-25 09:02 30.80281 -125.02210 35083 ft 547 kts 77°
2026-04-25 09:02 30.82242 -124.93664 35083 ft 547 kts 78°
2026-04-25 09:03 30.84199 -124.85106 35091 ft 547 kts 78°
2026-04-25 09:03 30.86136 -124.76608 35083 ft 547 kts 78°
2026-04-25 09:04 30.88082 -124.68042 35078 ft 547 kts 78°
2026-04-25 09:04 30.90020 -124.59483 35087 ft 547 kts 78°
2026-04-25 09:05 30.91956 -124.50909 35084 ft 548 kts 78°
2026-04-25 09:05 30.93885 -124.42331 35070 ft 548 kts 78°
2026-04-25 09:06 30.95813 -124.33734 35078 ft 548 kts 78°
2026-04-25 09:06 30.97734 -124.25133 35079 ft 549 kts 78°
2026-04-25 09:07 30.99652 -124.16524 35076 ft 549 kts 78°
2026-04-25 09:07 31.01564 -124.07909 35075 ft 549 kts 78°
2026-04-25 09:08 31.03472 -123.99279 35076 ft 549 kts 78°
2026-04-25 09:08 31.05375 -123.90646 35076 ft 550 kts 78°
2026-04-25 09:09 31.07271 -123.82015 35072 ft 550 kts 78°
2026-04-25 09:09 31.09165 -123.73366 35072 ft 550 kts 78°
2026-04-25 09:10 31.11051 -123.64720 35066 ft 550 kts 78°
2026-04-25 09:10 31.12932 -123.56071 35062 ft 550 kts 78°
2026-04-25 09:11 31.15658 -123.43049 35065 ft 550 kts 79°
2026-04-25 09:11 31.17424 -123.34354 35062 ft 551 kts 80°
2026-04-25 09:12 31.19192 -123.25655 35060 ft 551 kts 80°
2026-04-25 09:12 31.20967 -123.16938 35058 ft 552 kts 80°
2026-04-25 09:13 31.22727 -123.08278 35060 ft 552 kts 80°
2026-04-25 09:13 31.24493 -122.99549 35052 ft 553 kts 80°
2026-04-25 09:14 31.26266 -122.90748 35055 ft 553 kts 80°
2026-04-25 09:14 31.28013 -122.82046 35054 ft 554 kts 80°
2026-04-25 09:15 31.29768 -122.73270 35055 ft 554 kts 80°
2026-04-25 09:15 31.31517 -122.64489 35053 ft 555 kts 80°
2026-04-25 09:16 31.33264 -122.55690 35050 ft 555 kts 81°
2026-04-25 09:16 31.35003 -122.46893 35048 ft 555 kts 81°
2026-04-25 09:17 31.37601 -122.33691 35047 ft 555 kts 81°
2026-04-25 09:18 31.39326 -122.24883 35049 ft 555 kts 81°
2026-04-25 09:18 31.41045 -122.16073 35045 ft 555 kts 81°
2026-04-25 09:19 31.42755 -122.07269 35045 ft 555 kts 81°
2026-04-25 09:19 31.44460 -121.98461 35044 ft 554 kts 81°
2026-04-25 09:20 31.46157 -121.89658 35041 ft 554 kts 81°
2026-04-25 09:20 31.47850 -121.80846 35046 ft 554 kts 81°
2026-04-25 09:21 31.49534 -121.72044 35039 ft 554 kts 81°
2026-04-25 09:21 31.51212 -121.63235 35040 ft 554 kts 81°
2026-04-25 09:22 31.52883 -121.54432 35036 ft 554 kts 81°
2026-04-25 09:22 31.54549 -121.45616 35035 ft 554 kts 81°
2026-04-25 09:23 31.56360 -121.36842 35021 ft 556 kts 72°
2026-04-25 09:23 31.59212 -121.28407 35030 ft 557 kts 67°
2026-04-25 09:24 31.62307 -121.20080 35030 ft 557 kts 67°
2026-04-25 09:24 31.65310 -121.11696 35028 ft 557 kts 69°
2026-04-25 09:25 31.68219 -121.03271 35026 ft 557 kts 69°
2026-04-25 09:25 31.71105 -120.94829 35025 ft 557 kts 69°
2026-04-25 09:26 31.73994 -120.86385 35022 ft 557 kts 69°
2026-04-25 09:26 31.76863 -120.78000 35024 ft 557 kts 69°
2026-04-25 09:27 31.79745 -120.69558 35020 ft 557 kts 69°
2026-04-25 09:27 31.82159 -120.62470 35019 ft 557 kts 69°
2026-04-25 09:28 31.85498 -120.52638 35016 ft 557 kts 69°
2026-04-25 09:28 31.88361 -120.44181 35017 ft 557 kts 69°
2026-04-25 09:29 31.90740 -120.37141 35015 ft 557 kts 69°
2026-04-25 09:29 31.93623 -120.28683 35005 ft 557 kts 64°
2026-04-25 09:29 31.96444 -120.23638 35027 ft 549 kts 44°
2026-04-25 09:30 31.98153 -120.21459 35035 ft 548 kts 43°
2026-04-25 09:30 32.03461 -120.14999 35016 ft 548 kts 41°
2026-04-25 09:31 32.08749 -120.08512 35004 ft 549 kts 43°
2026-04-25 09:31 32.13971 -120.01940 35006 ft 549 kts 43°
2026-04-25 09:32 32.19173 -119.95326 35001 ft 549 kts 43°
2026-04-25 09:32 32.24368 -119.88716 35001 ft 549 kts 43°
2026-04-25 09:33 32.29566 -119.82104 34792 ft 551 kts 43°
2026-04-25 09:33 32.32164 -119.78794 34546 ft 548 kts 43°
2026-04-25 09:33 32.34747 -119.75500 34306 ft 545 kts 43°
2026-04-25 09:33 32.37325 -119.72210 34104 ft 545 kts 43°
2026-04-25 09:34 32.39904 -119.68918 33573 ft 545 kts 43°
2026-04-25 09:34 32.42478 -119.65626 32848 ft 545 kts 44°
2026-04-25 09:34 32.45049 -119.62337 32124 ft 545 kts 44°
2026-04-25 09:34 32.47618 -119.59047 31588 ft 541 kts 44°
2026-04-25 09:35 32.50156 -119.55792 31083 ft 536 kts 44°
2026-04-25 09:35 32.52681 -119.52552 30583 ft 532 kts 44°
2026-04-25 09:35 32.55181 -119.49342 30080 ft 528 kts 44°
2026-04-25 09:35 32.57660 -119.46156 29497 ft 524 kts 45°
2026-04-25 09:36 32.60122 -119.42989 28932 ft 519 kts 45°
2026-04-25 09:36 32.62558 -119.39853 28417 ft 514 kts 45°
2026-04-25 09:36 32.64965 -119.36750 27887 ft 509 kts 45°
2026-04-25 09:36 32.67352 -119.33672 27372 ft 504 kts 45°
2026-04-25 09:37 32.69714 -119.30623 26862 ft 499 kts 45°
2026-04-25 09:37 32.72050 -119.27605 26357 ft 495 kts 45°
2026-04-25 09:37 32.74369 -119.24607 25879 ft 490 kts 45°
2026-04-25 09:37 32.76662 -119.21640 25345 ft 487 kts 45°
2026-04-25 09:38 32.78941 -119.18689 24853 ft 483 kts 45°
2026-04-25 09:38 32.81205 -119.15754 24339 ft 480 kts 45°
2026-04-25 09:38 32.83423 -119.12878 23850 ft 476 kts 45°
2026-04-25 09:38 32.85651 -119.09985 23295 ft 473 kts 45°
2026-04-25 09:39 32.87863 -119.07111 22742 ft 469 kts 45°
2026-04-25 09:39 32.90082 -119.04225 22229 ft 464 kts 45°
2026-04-25 09:39 32.92250 -119.01402 21717 ft 459 kts 45°
2026-04-25 09:40 32.96488 -118.95880 20756 ft 450 kts 45°
2026-04-25 09:40 32.98593 -118.93135 20278 ft 446 kts 45°
2026-04-25 09:40 33.00674 -118.90418 19808 ft 442 kts 45°
2026-04-25 09:40 33.02741 -118.87718 19332 ft 439 kts 45°
2026-04-25 09:41 33.04791 -118.85038 18855 ft 436 kts 45°
2026-04-25 09:41 33.06824 -118.82378 18376 ft 433 kts 45°
2026-04-25 09:41 33.08847 -118.79729 17850 ft 430 kts 45°
2026-04-25 09:41 33.10854 -118.77100 17351 ft 427 kts 45°
2026-04-25 09:42 33.12841 -118.74493 16889 ft 421 kts 45°
2026-04-25 09:42 33.14785 -118.71941 16432 ft 411 kts 45°
2026-04-25 09:42 33.16692 -118.69437 16116 ft 403 kts 45°
2026-04-25 09:42 33.18547 -118.66998 15972 ft 392 kts 45°
2026-04-25 09:43 33.20321 -118.64579 15870 ft 383 kts 47°
2026-04-25 09:43 33.22032 -118.62170 15785 ft 382 kts 47°
2026-04-25 09:43 33.23765 -118.59713 15711 ft 390 kts 47°
2026-04-25 09:43 33.25528 -118.57217 15615 ft 394 kts 47°
2026-04-25 09:44 33.27293 -118.54725 15496 ft 392 kts 47°
2026-04-25 09:44 33.29051 -118.52248 15392 ft 390 kts 47°
2026-04-25 09:44 33.30801 -118.49785 15291 ft 388 kts 47°
2026-04-25 09:44 33.32531 -118.47318 15190 ft 388 kts 51°
2026-04-25 09:45 33.33765 -118.44450 15082 ft 390 kts 73°
2026-04-25 09:45 33.34148 -118.41273 14985 ft 387 kts 93°
2026-04-25 09:45 33.34000 -118.38071 14915 ft 386 kts 96°
2026-04-25 09:45 33.33787 -118.34870 14807 ft 387 kts 97°
2026-04-25 09:46 33.33566 -118.31661 14700 ft 388 kts 97°
2026-04-25 09:46 33.33358 -118.28435 14591 ft 389 kts 96°
2026-04-25 09:46 33.33164 -118.25205 14485 ft 389 kts 96°
2026-04-25 09:46 33.32979 -118.21981 14378 ft 389 kts 96°
2026-04-25 09:47 33.32796 -118.18750 14276 ft 389 kts 96°
2026-04-25 09:47 33.32613 -118.15526 14174 ft 388 kts 96°
2026-04-25 09:47 33.32539 -118.12306 14051 ft 390 kts 84°
2026-04-25 09:47 33.33267 -118.09195 13848 ft 391 kts 64°
2026-04-25 09:48 33.34798 -118.06536 13328 ft 386 kts 44°
2026-04-25 09:48 33.36658 -118.04263 12877 ft 383 kts 42°
2026-04-25 09:48 33.38528 -118.02069 12402 ft 380 kts 37°
2026-04-25 09:48 33.40781 -118.00444 11935 ft 369 kts 16°
2026-04-25 09:49 33.43195 -117.99763 11533 ft 356 kts 358°
2026-04-25 09:49 33.45640 -117.99789 11162 ft 349 kts 352°
2026-04-25 09:49 33.48053 -117.99943 10764 ft 346 kts 352°
2026-04-25 09:49 33.50431 -118.00103 10364 ft 337 kts 352°
2026-04-25 09:50 33.52740 -118.00238 9983 ft 327 kts 353°
2026-04-25 09:50 33.54949 -118.00349 9924 ft 306 kts 353°
2026-04-25 09:50 33.57006 -118.00445 9882 ft 287 kts 353°
2026-04-25 09:50 33.58967 -118.00539 9589 ft 279 kts 353°
2026-04-25 09:51 33.60901 -118.00629 9130 ft 277 kts 353°
2026-04-25 09:51 33.62820 -118.00717 8686 ft 275 kts 353°
2026-04-25 09:51 33.64725 -118.00817 8257 ft 272 kts 350°
2026-04-25 09:51 33.66549 -118.01269 7926 ft 265 kts 340°
2026-04-25 09:52 33.68302 -118.01908 7715 ft 263 kts 339°
2026-04-25 09:52 33.70044 -118.02561 7582 ft 262 kts 339°
2026-04-25 09:52 33.71771 -118.03188 7438 ft 256 kts 340°
2026-04-25 09:52 33.73459 -118.03783 7311 ft 250 kts 340°
2026-04-25 09:53 33.75104 -118.04356 7174 ft 243 kts 340°
2026-04-25 09:53 33.76707 -118.04910 7060 ft 236 kts 341°
2026-04-25 09:53 33.78265 -118.05450 6919 ft 230 kts 339°
2026-04-25 09:53 33.79768 -118.06111 6659 ft 229 kts 335°
2026-04-25 09:54 33.81241 -118.06834 6418 ft 229 kts 335°
2026-04-25 09:54 33.82014 -118.07215 6276 ft 229 kts 335°
2026-04-25 09:54 33.83440 -118.07911 5998 ft 229 kts 335°
2026-04-25 09:54 33.84915 -118.08625 5754 ft 229 kts 336°
2026-04-25 09:55 33.86395 -118.09338 5487 ft 229 kts 336°
2026-04-25 09:55 33.87871 -118.10049 5223 ft 229 kts 336°
2026-04-25 09:55 33.89372 -118.10714 4954 ft 230 kts 346°
2026-04-25 09:55 33.90949 -118.10930 4768 ft 226 kts 355°
2026-04-25 09:56 33.92498 -118.11015 4526 ft 219 kts 350°
2026-04-25 09:56 33.93829 -118.11772 4270 ft 210 kts 320°
2026-04-25 09:56 33.94962 -118.12871 4115 ft 208 kts 319°
2026-04-25 09:56 33.95771 -118.14236 3935 ft 200 kts 281°
2026-04-25 09:57 33.95812 -118.15840 3766 ft 190 kts 268°
2026-04-25 09:57 33.95804 -118.17428 3505 ft 187 kts 267°
2026-04-25 09:57 33.95711 -118.18984 3251 ft 185 kts 263°
2026-04-25 09:57 33.95565 -118.20516 3009 ft 184 kts 262°
2026-04-25 09:58 33.95407 -118.22047 2796 ft 183 kts 261°
2026-04-25 09:58 33.95253 -118.23534 2525 ft 175 kts 261°
2026-04-25 09:58 33.95111 -118.24909 2320 ft 160 kts 261°
2026-04-25 09:58 33.94977 -118.26202 2136 ft 153 kts 261°
2026-04-25 09:59 33.94846 -118.27469 1904 ft 150 kts 261°
2026-04-25 09:59 33.94718 -118.28703 1701 ft 146 kts 261°
2026-04-25 09:59 33.94595 -118.29896 1515 ft 145 kts 261°
2026-04-25 09:59 33.94471 -118.31101 1324 ft 145 kts 262°
2026-04-25 10:00 33.94346 -118.32307 1150 ft 144 kts 262°
2026-04-25 10:00 33.94235 -118.33410 1032 ft 144 kts 262°
2026-04-25 10:00 33.94119 -118.34613 853 ft 144 kts 262°
2026-04-25 10:00 33.93994 -118.35804 676 ft 144 kts 261°
2026-04-25 10:01 33.93867 -118.37000 427 ft 144 kts 263°
2026-04-25 10:01 33.93747 -118.38190 159 ft 143 kts 261°
2026-04-25 10:01 33.93627 -118.39351 108 ft 137 kts 263°
2026-04-25 10:01 33.93532 -118.40280 117 ft 79 kts 263°
2026-04-25 10:02 33.93468 -118.40560 110 ft 28 kts 296°
2026-04-25 10:02 33.93483 -118.40696 111 ft 10 kts 247°
2026-04-25 10:02 33.93417 -118.40719 106 ft 11 kts 174°
2026-04-25 10:02 33.93371 -118.40670 101 ft 11 kts 101°
2026-04-25 10:03 33.93378 -118.40579 100 ft 11 kts 82°
2026-04-25 10:03 33.93388 -118.40492 100 ft 11 kts 85°
2026-04-25 10:03 33.93396 -118.40404 100 ft 10 kts 83°
2026-04-25 10:03 33.93405 -118.40320 100 ft 10 kts 82°
2026-04-25 10:04 33.93415 -118.40239 100 ft 10 kts 83°
2026-04-25 10:04 33.93421 -118.40161 100 ft 9 kts 84°
2026-04-25 10:04 33.93429 -118.40082 100 ft 9 kts 82°
2026-04-25 10:04 33.93438 -118.40006 99 ft 9 kts 82°
2026-04-25 10:05 33.93445 -118.39931 100 ft 9 kts 84°
2026-04-25 10:05 33.93452 -118.39858 100 ft 9 kts 83°
2026-04-25 10:05 33.93416 -118.39814 98 ft 9 kts 179°
2026-04-25 10:05 33.93348 -118.39811 95 ft 9 kts 181°
2026-04-25 10:06 33.93302 -118.39848 95 ft 8 kts 268°
2026-04-25 10:06 33.93302 -118.39887 95 ft 0 kts 263°
2026-04-25 10:10 33.93577 -118.39925 111 ft 763 kts 263°
2026-04-25 10:10 33.93678 -118.38918 107 ft 0 kts 263°
2026-04-25 10:10 33.93618 -118.39375 108 ft 0 kts 263°
2026-04-25 10:11 33.93575 -118.39833 111 ft 0 kts 263°
2026-04-25 10:11 33.93431 -118.40971 112 ft 1079 kts 263°